Overview Statistics Trail Chart Weather Telemetry Raw packets
 

This is the latest recevied weather packets stored in our database for station/object K0FJ-1. If no packets are shown the sender has not sent any weather packets the latest 10 day(s).

<< 70 71 72 73 74 75 76 >>
Time Temp. Humidity Pressure Rain* Wind** Luminosity Snow
1788195321 28.89° C 53% 1018.3 hPa 0 mm - - -
1788195003 28.89° C 55% 1018.3 hPa 0 mm - - -
1788194703 28.33° C 54% 1018.4 hPa 0 mm - - -
1788194403 28.33° C 55% 1018.2 hPa 0 mm - - -
1788194103 27.78° C 57% 1018.2 hPa 0 mm - - -
1788193803 27.78° C 57% 1018.2 hPa 0 mm - - -
1788193503 27.22° C 59% 1018.2 hPa 0 mm - - -
1788193203 27.22° C 59% 1018.3 hPa 0 mm - - -
1788192903 26.67° C 62% 1018.3 hPa 0 mm - - -
1788192603 26.67° C 61% 1018.3 hPa 0 mm - - -
1788192303 26.11° C 64% 1018.3 hPa 0 mm - - -
1788192014 25.56° C 64% 1018.3 hPa 0 mm - - -
1788191703 25.56° C 66% 1018.2 hPa 0 mm - - -
1788191403 25° C 64% 1018.2 hPa 0 mm - - -
1788191103 25° C 66% 1018.2 hPa 0 mm - - -
1788190803 25° C 67% 1018.2 hPa 0 mm - - -
1788190503 24.44° C 66% 1018.1 hPa 0 mm - - -
1788190203 24.44° C 70% 1018.1 hPa 0 mm - - -
1788189903 24.44° C 72% 1018.2 hPa 0 mm - - -
1788189603 23.89° C 72% 1018.2 hPa 0 mm - - -
1788189303 23.89° C 73% 1018.2 hPa 0 mm - - -
1788189003 23.89° C 73% 1018.2 hPa 0 mm - - -
1788188703 23.33° C 75% 1018.2 hPa 0 mm - - -
1788188403 23.33° C 77% 1018.2 hPa 0 mm - - -
1788188103 22.78° C 80% 1018.2 hPa 0 mm - - -

* Rain latest hour (hover to see other rain measurements)
** Current wind speed in m/s (hover to see current wind gust speed)